Location: Newark
(48.6676°N, 6.1917°E)
Time: 05:25:33
(UTC+00:00)

N. Korean satellite - Pass Details

Date: 11 December 2019
Orbit: 454 x 508 km, 97.2° (Epoch: 20 January)

Event Time Altitude Azimuth Distance (km) Brightness Sun altitude
Rises 06:07:23 0° 5° (N) 2,556 10.1 -10.9°
Reaches altitude 10° 06:09:34 10° 357° (N) 1,662 9.0 -10.6°
Maximum altitude 06:12:52 36° 290° (WNW) 766 7.0 -10.1°
Drops below altitude 10° 06:16:05 10° 222° (SW) 1,621 9.0 -9.6°
Sets 06:18:11 0° 214° (SW) 2,484 10.1 -9.3°
